|
Uranus Trojans
(Preview)
|
Solar System
|
0
|
2186
|
|
|
Title: Where are the Uranus Trojans? Authors: Rudolf Dvorak, Ákos Bazsó, Li-Yong Zhou The area of stable motion for fictitious Trojan asteroids around Uranus' equilateral equilibrium points is investigated with respect to the size of the regions and their shape in dependence of the inclination...
|
|
|
|
|
|
Uranus
(
1 2 3 4 5 … 6
)
(Preview)
|
Solar System
|
55
|
59225
|
|
|
|
|
|
|
|
|
Uranus
(
1 2
)
(Preview)
|
Observations
|
10
|
6257
|
|
|
The Planet Uranus 02:14 UT, 16 September 2008 5 Second
|
|
|
|
|
|
Titania
(Preview)
|
Uranus
|
2
|
4300
|
|
|
Titania est le principal satellite d'Uranus. Une équipe d'astronomes de l'Observatoire de Paris associée à plus d'une centaines d'observateurs amateurs et professionnels, dans une campagne inédite à cette échelle, a pu établir depuis le sol, avec des instruments de taille modeste (de l'ordre...
|
|
|
|
|
|
Cressida
(Preview)
|
Uranus
|
1
|
4016
|
|
|
Cressida is an inner satellite of Uranus. It was discovered from the images taken by Voyager 2 on 9 January 1986, and was given the temporary designation S/1986 U 3. It was named after the Trojan daughter of Calchas, a tragic heroine who appears in William Shakespeare's play Troilus and Cressida (as w...
|
|
|
|
|
|
Oberon
(Preview)
|
Uranus
|
2
|
3879
|
|
|
Miranda, Ariel, Umbriel, Titania & Oberon Spoiler
|
|
|
|
|
|
Asteroid 2011 QF99
(Preview)
|
Asteroids 2013
|
4
|
3868
|
|
|
Orbital elements:
2011 QF99
Epoch 2013 Apr. 18.0 TT = JDT 2456400.5 MPC
M 266.87910 (2000.0) P Q
n 0.01175115 Peri. 286.31989 -0.84417198 -0.52091457
a 19.1608990 Node 222.51181 +0.53486523 -0.80261768
e 0.1767221 Incl. 10.79614 +0.03595634 -0.29060776
P 83.87 H 9.7 G 0.15 U 3 MPEC 2013 -...
|
|
|
|
|
|
Asteroid 2010 EO65
(Preview)
|
Asteroids 2013
|
0
|
2055
|
|
|
Orbital elements:
2010 EO65
Epoch 2011 Feb. 8.0 TT = JDT 2455600.5 MPC
M 347.26684 (2000.0) P Q
n 0.00792320 Peri. 270.71915 -0.67498437 +0.72488982
a 24.9192781 Node 315.75484 -0.57389275 -0.63300155
e 0.4381384 Incl. 11.37302 -0.46372752 -0.27174213
P 124.40 H 9.6 G 0.15 U 4MPEC 2011 -...
|
|
|
|
|
|
Asteroid (83982) Crantor
(Preview)
|
Asteroids 2013
|
2
|
4448
|
|
|
Title: Crantor, a short-lived horseshoe companion to Uranus Authors: C. de la Fuente Marcos, R. de la Fuente Marcos Stable co-orbital motion with Uranus is vulnerable to planetary migration but temporary co-orbitals may exist today. So far only two candidates have been suggested, both moving on...
|
|
|
|
|